Location: Sortland
(68.7020°N, 15.4240°E)
Time: 04:22:38
(UTC+01:00)

Envisat - Pass Details

Date: 22 October 2019
Orbit: 764 x 766 km, 98.1° (Epoch: 20 November)

Event Time Altitude Azimuth Distance (km) Brightness Sun altitude
Rises 06:51:53 0° 16° (NNE) 3,251 6.4 -9.4°
Reaches altitude 10° 06:54:36 10° 30° (NNE) 2,320 5.8 -9.1°
Maximum altitude 06:58:49 25° 86° (E) 1,505 5.6 -8.8°
Drops below altitude 10° 07:03:01 10° 141° (SE) 2,309 6.2 -8.4°
Sets 07:05:42 0° 155° (SSE) 3,231 6.8 -8.1°
